Overview Statistics Trail Chart Weather Telemetry Raw packets
 

This is the latest recevied weather packets stored in our database for station/object W1RCP. If no packets are shown the sender has not sent any weather packets the latest 10 day(s).

<< 1 2 3 4 5 6 >>
Time Temp. Humidity Pressure Rain* Wind** Luminosity Snow
1788611525 25° C 92% 1026.4 hPa 0 mm - 80 W/m² -
1788611225 25° C 92% 1026.4 hPa 0 mm - 74 W/m² -
1788610919 24.44° C 93% 1026.5 hPa 0 mm - 50 W/m² -
1788610614 24.44° C 93% 1026.6 hPa 0 mm - 72 W/m² -
1788610310 24.44° C 93% 1026.6 hPa 0 mm - 54 W/m² -
1788610009 24.44° C 94% 1026.6 hPa 0 mm - 33 W/m² -
1788609704 24.44° C 94% 1026.5 hPa 0 mm - 27 W/m² -
1788609404 24.44° C 95% 1026.1 hPa 0 mm - 25 W/m² -
1788609099 24.44° C 95% 1026 hPa 0 mm - 24 W/m² -
1788608798 24.44° C 95% 1025.9 hPa 0 mm - 23 W/m² -
1788608497 24.44° C 95% 1025.6 hPa 0 mm - 18 W/m² -
1788608192 24.44° C 95% 1025.6 hPa 0 mm - 14 W/m² -
1788607888 24.44° C 95% 1025.8 hPa 0 mm - 10 W/m² -
1788607582 23.89° C 95% 1025.5 hPa 0 mm - 8 W/m² -
1788607278 24.44° C 95% 1025.5 hPa 0 mm - 6 W/m² -
1788606978 23.89° C 95% 1025.5 hPa 0 mm - 4 W/m² -
1788606677 23.89° C 96% 1025.3 hPa 0 mm - 2 W/m² -
1788606376 23.89° C 96% 1025.2 hPa 0 mm - 1 W/m² -
1788606079 23.89° C 96% 1025.3 hPa 0 mm - 0 W/m² -
1788605772 23.89° C 96% 1025.3 hPa 0 mm - 0 W/m² -
1788605470 23.89° C 96% 1025.2 hPa 0 mm - 0 W/m² -
1788605167 23.89° C 96% 1025.3 hPa 0 mm - 0 W/m² -
1788604867 23.89° C 96% 1025.1 hPa 0 mm - 0 W/m² -
1788604562 23.89° C 96% 1024.9 hPa 0 mm - 0 W/m² -
1788604258 23.89° C 96% 1025 hPa 0 mm - 0 W/m² -

* Rain latest hour (hover to see other rain measurements)
** Current wind speed in m/s (hover to see current wind gust speed)